Tracking 18917 objects as of 16-Jan-2018
HD Live streaming from Space Station
objects crossing your sky now

COSMOS 2345

Track COSMOS 2345 now!
COSMOS 2345 is classified as:


NORAD ID: 24894
Int'l Code: 1997-041A
Perigee: 35,116.9 km
Apogee: 36,537.3 km
Inclination: 13.8 °
Period: 1,437.8 minutes
Semi major axis: 42198 km
RCS: 5.0119 m2 (large)
Launch date: August 14, 1997
Source: Commonwealth of Independent States (former USSR) (CIS)
Launch site: TYURATAM MISSILE AND SPACE COMPLEX (TTMTR)
aabbcc
Your satellite tracking list
Your tracking list is empty




NASA's NSSDC Master Catalog

Two Line Element Set (TLE):
1 24894U 97041A   18014.61779017 -.00000116 +00000-0 +00000-0 0  9999
2 24894 013.7510 023.1740 0168299 223.4892 335.9580 01.00153021074825
Source of the keplerian elements: AFSPC